Weather History for KP28 - May, 2013

Change the Weather History Date:

Monday, May 20, 2013

  Actual Average Record
Temperature  
Mean Temperature 67 °F 68 °F  
Max Temperature 80 °F 81 °F 100 °F (1956)
Min Temperature 53 °F 57 °F 36 °F (1981)
Degree Days  
Heating Degree Days 0 2  
Month to date heating degree days 109 62  
Since 1 July heating degree days 4514 4447  
Cooling Degree Days 2 5  
Month to date cooling degree days 47 63  
Year to date cooling degree days 68 87  
Growing Degree Days 16 (Base 50)    
Moisture  
Dew Point 53 °F    
Average Humidity 69    
Maximum Humidity 100    
Minimum Humidity 37    
Precipitation  
Precipitation 0.00 in 0.11 in 2.21 in (1899)
Month to date precipitation 1.65 1.99  
Year to date precipitation 9.40 8.43  
Snow  
Snow 0.00 in 0.00 in - ()
Month to date snowfall 0.0 0.0  
Since 1 July snowfall 25.0 8.5  
Snow Depth 0.00 in    
Sea Level Pressure  
Sea Level Pressure 29.71 in    
Wind  
Wind Speed 6 mph (North)    
Max Wind Speed 16 mph    
Max Gust Speed 20 mph    
T = Trace of Precipitation, MM = Missing Value Source: NWS Daily Summary

Daily Weather History Graph

Daily Weather History Graph

Search for Another Location

Airport or City:

Trip Planner

Search our weather history database for the weather conditions in past years. The results will help you decide how hot, cold, wet, or windy it might be!

Date:

Astronomy

May. 20, 2013 Rise Set
Actual Time 6:21 AM CDT 8:40 PM CDT
Civil Twilight 5:51 AM CDT 9:10 PM CDT
Nautical Twilight 5:15 AM CDT 9:46 PM CDT
Astronomical Twilight 4:35 AM CDT 10:26 PM CDT
Moon 3:55 PM CDT (5/20) 3:10 AM CDT (5/20)
Length of Visible Light 15h 18m
Length of Day
14h 18m
Waxing Gibbous, 75% of the Moon is Illuminated
May 20
Waxing Gibbous
May 24
Full
May 31
Last Quarter
Jun 8
New
Jun 16
First Quarter

Hourly Weather History & Observations

Time (CDT) Temp. Dew Point Humidity Pressure Visibility Wind Dir Wind Speed Gust Speed Precip Events Conditions
12:56 AM 64.0 °F 53.1 °F 67% 29.67 in - SE 5.8 mph - N/A   Unknown
1:56 AM 63.0 °F 54.0 °F 72% 29.63 in - East 8.1 mph - N/A   Unknown
2:56 AM 60.1 °F 54.0 °F 80% 29.65 in - West 4.6 mph - N/A   Unknown
3:56 AM 57.0 °F 53.1 °F 87% 29.67 in - Calm Calm - N/A   Unknown
4:56 AM 54.0 °F 53.1 °F 97% 29.68 in - NNW 5.8 mph - N/A   Unknown
5:56 AM 55.0 °F 53.1 °F 93% 29.68 in - North 9.2 mph - N/A   Unknown
6:56 AM 57.9 °F 53.1 °F 84% 29.73 in - Calm Calm - N/A   Unknown
7:56 AM 61.0 °F 54.0 °F 78% 29.74 in - South 8.1 mph - N/A   Unknown
8:56 AM 66.0 °F 53.1 °F 63% 29.75 in - NE 9.2 mph - N/A   Unknown
9:56 AM 68.0 °F 53.1 °F 59% 29.75 in - NNW 15.0 mph - N/A   Unknown
10:56 AM 70.0 °F 54.0 °F 57% 29.73 in - NNE 9.2 mph - N/A   Unknown
11:56 AM 73.0 °F 55.9 °F 55% 29.72 in - North 13.8 mph - N/A   Unknown
12:56 PM 75.9 °F 54.0 °F 46% 29.72 in - North 5.8 mph - N/A   Unknown
1:56 PM 75.0 °F 54.0 °F 48% 29.71 in - ENE 6.9 mph - N/A   Unknown
2:56 PM 77.0 °F 54.0 °F 45% 29.72 in - Variable 5.8 mph - N/A   Unknown
3:56 PM 75.0 °F 53.1 °F 46% 29.73 in - Variable 6.9 mph - N/A   Unknown
4:56 PM 78.1 °F 52.0 °F 40% 29.68 in - NNW 9.2 mph - N/A   Unknown
5:56 PM 79.0 °F 50.0 °F 36% 29.68 in - NE 3.5 mph - N/A   Unknown
6:56 PM 78.1 °F 51.1 °F 39% 29.68 in - Variable 3.5 mph - N/A   Unknown
7:56 PM 75.0 °F 52.0 °F 44% 29.69 in - Calm Calm - N/A   Unknown
8:56 PM 72.0 °F 53.1 °F 51% 29.72 in - West 4.6 mph - N/A   Unknown
9:56 PM 68.0 °F 53.1 °F 59% 29.73 in - Calm Calm - N/A   Unknown
10:56 PM 59.0 °F 55.0 °F 87% 29.79 in - North 3.5 mph - N/A   Unknown
11:56 PM 61.0 °F 51.1 °F 70% 29.82 in - NW 4.6 mph - N/A   Unknown